ACS3

Last updated on Thu Nov 21 2024 00:02:13 GMT+0000 (Coordinated Universal Time)

1 59588U 24077B 24325.56294812 .00033724 00000+0 36259-1 0 9992 2 59588 97.5150 358.1044 0033114 195.8478 164.1642 13.73030917 28809
UTC large
Height (km)
Speed (km/s)
/
Latitude / Longitude
Inclination (degrees)
Orbital Period (minutes)
Azimuth
Elevation
Range (km)
Doppler Factor

Next 0 passes for location: London (51.5072 / 0.1276)

Sorry there are no passes over London.